This demonstration page uses our WeatherBlox Daily Observations layout. Learn more.

Left ArrowRight Arrow

Hourly Observations for December 10, 2018

Temp ( °F °C ) Dew Point ( °F °C ) Humidity (%) Winds ( mph kmh ) Pressure ( in mb ) Visibility ( mi km ) Precip ( " mm )
12:57 am 00:57 Clear 13 -10.6 10 -12.2 88 88 W 3 6 30.37 1028 10 16 0.00 0.00
1:57 am 01:57 Clear 12 -11.1 9 -12.8 87 87 WNW 5 7 30.37 1028 10 16 0.00 0.00
2:57 am 02:57 Clear 12 -11.1 9 -12.8 87 87 WNW 6 9 30.37 1028 10 16 0.00 0.00
3:57 am 03:57 Clear 10 -12.2 7 -13.9 87 87 WSW 3 6 30.36 1028 10 16 0.00 0.00
4:57 am 04:57 Clear 10 -12.2 7 -13.9 87 87 Calm 30.35 1028 10 16 0.00 0.00
5:57 am 05:57 Clear 9 -12.8 7 -13.9 92 92 Calm 30.35 1028 10 16 0.00 0.00
6:57 am 06:57 Clear 12 -11.1 8 -13.3 84 84 W 10 17 30.36 1028 10 16 0.00 0.00
7:57 am 07:57 Sunny 12 -11.1 8 -13.3 84 84 NW 6 9 30.37 1028 10 16 0.00 0.00
8:57 am 08:57 Sunny 13 -10.6 9 -12.8 84 84 SSW 6 9 30.35 1028 10 16 0.00 0.00
9:57 am 09:57 Sunny 21 -6.1 14 -10 74 74 WSW 6 9 30.35 1028 10 16 0.00 0.00
10:57 am 10:57 Sunny 27 -2.8 17 -8.3 66 66 WSW 5 7 30.33 1027 10 16 0.00 0.00
11:57 am 11:57 Sunny 31 -0.6 20 -6.7 64 64 WSW 8 13 30.30 1026 10 16 0.00 0.00
12:57 pm 12:57 Sunny 31 -0.6 21 -6.1 67 67 SW 10 17 30.27 1025 10 16 0.00 0.00
1:57 pm 13:57 Sunny 32 0 22 -5.6 66 66 SW 10 17 30.24 1024 10 16 0.00 0.00
2:57 pm 14:57 Sunny 34 1.1 23 -5 64 64 SSW 10 17 30.22 1023 10 16 0.00 0.00
3:57 pm 15:57 Sunny 34 1.1 25 -3.9 70 70 SW 13 20 30.22 1024 10 16 0.00 0.00
5:57 pm 17:57 Clear 29 -1.7 23 -5 78 78 SW 12 19 30.22 1023 10 16 0.00 0.00
6:57 pm 18:57 Clear 29 -1.7 22 -5.6 75 75 SW 12 19 30.20 1023 10 16 0.00 0.00
7:57 pm 19:57 Clear 27 -2.8 21 -6.1 78 78 SSW 7 11 30.19 1023 10 16 0.00 0.00
8:57 pm 20:57 Clear 29 -1.7 22 -5.6 75 75 SSW 10 17 30.17 1022 10 16 0.00 0.00
9:57 pm 21:57 Clear 30 -1.1 21 -6.1 69 69 SSW 10 17 30.14 1021 10 16 0.00 0.00
10:57 pm 22:57 Clear 28 -2.2 20 -6.7 72 72 SW 14 22 30.11 1020 10 16 0.00 0.00
11:57 pm 23:57 Clear 29 -1.7 20 -6.7 69 69 SW 14 22 30.10 1019 10 16 0.00 0.00

Powered by AerisWeather